Montevideo, MN

2:25 AM CDT on October 20, 2017 (GMT -0500)
Montevideo-Chippewa County

Weather History for KMVE - October, 2012

Change the Weather History Date:

Thursday, October 18, 2012

  Actual Average Record
Temperature  
Mean Temperature 42 °F -  
Max Temperature 46 °F 56 °F 84 °F (2005)
Min Temperature 39 °F 34 °F 18 °F (1972)
Degree Days  
Heating Degree Days 22    
Moisture  
Dew Point 43 °F    
Average Humidity 98    
Maximum Humidity 100    
Minimum Humidity 81    
Precipitation  
Precipitation 0.41 in - - ()
Sea Level Pressure  
Sea Level Pressure 29.30 in    
Wind  
Wind Speed 16 mph (NNW)    
Max Wind Speed 31 mph    
Max Gust Speed 44 mph    
Visibility 5 miles    
Events Rain    
Averages and records for this station are not official NWS values.
T = Trace of Precipitation, MM = Missing Value Source: NWS Daily Summary

Daily Weather History Graph

Daily Weather History Graph

Search for Another Location

Airport or City:

Trip Planner

Search our weather history database for the weather conditions in past years. The results will help you decide how hot, cold, wet, or windy it might be!

Date:

Astronomy

Oct. 18, 2012 Rise Set
Actual Time 7:43 AM CDT 6:31 PM CDT
Civil Twilight 7:13 AM CDT 7:01 PM CDT
Nautical Twilight 6:39 AM CDT 7:35 PM CDT
Astronomical Twilight 6:05 AM CDT 8:09 PM CDT
Moon 11:35 AM CDT (10/18) 8:57 PM CDT (10/18)
Length of Visible Light 11h 48m
Length of Day
10h 48m
Waxing Crescent, 14% of the Moon is Illuminated
Oct 18
Waxing Crescent
Oct 21
First Quarter
Oct 29
Full
Nov 6
Last Quarter
Nov 13
New

Hourly Weather History & Observations

Time (CDT) Temp. Windchill Dew Point Humidity Pressure Visibility Wind Dir Wind Speed Gust Speed Precip Events Conditions
12:14 AM 44.6 °F 37.8 °F 39.2 °F 81% 29.30 in 10.0 mi NW 15.0 mph 25.3 mph N/A   Overcast
12:35 AM 44.6 °F 37.8 °F 39.2 °F 81% 29.30 in 10.0 mi NW 15.0 mph 24.2 mph N/A   Overcast
12:54 AM 42.8 °F 35.4 °F 39.2 °F 87% 29.30 in 7.0 mi NW 15.0 mph 21.9 mph N/A   Overcast
1:14 AM 42.8 °F 35.4 °F 39.2 °F 87% 29.30 in 7.0 mi NW 15.0 mph 23.0 mph N/A   Overcast
1:35 AM 42.8 °F 36.6 °F 39.2 °F 87% 29.29 in 10.0 mi NW 11.5 mph 20.7 mph N/A   Overcast
1:54 AM 42.8 °F 36.6 °F 39.2 °F 87% 29.28 in 10.0 mi NW 11.5 mph 20.7 mph N/A   Overcast
2:14 AM 42.8 °F 35.4 °F 39.2 °F 87% 29.28 in 7.0 mi NW 15.0 mph 26.5 mph N/A   Overcast
2:34 AM 42.8 °F 36.2 °F 39.2 °F 87% 29.27 in 4.0 mi NW 12.7 mph 19.6 mph N/A   Overcast
2:54 AM 41.0 °F 32.8 °F 41.0 °F 100% 29.27 in 4.0 mi NW 16.1 mph 21.9 mph N/A   Overcast
3:14 AM 41.0 °F 33.5 °F 41.0 °F 100% 29.26 in 4.0 mi NW 13.8 mph 19.6 mph N/A   Overcast
3:33 AM 41.0 °F 34.7 °F 39.2 °F 93% 29.26 in 4.0 mi NW 10.4 mph 17.3 mph N/A   Overcast
3:54 AM 39.2 °F 31.2 °F 39.2 °F 100% 29.25 in 5.0 mi NW 13.8 mph 17.3 mph N/A   Overcast
4:14 AM 39.2 °F 31.6 °F 39.2 °F 100% 29.24 in 5.0 mi NW 12.7 mph 21.9 mph N/A   Overcast
4:34 AM 39.2 °F 31.2 °F 39.2 °F 100% 29.23 in 5.0 mi NW 13.8 mph 20.7 mph N/A   Overcast
4:54 AM 39.2 °F 31.2 °F 39.2 °F 100% 29.22 in 7.0 mi NW 13.8 mph 25.3 mph N/A   Overcast
5:14 AM 41.0 °F 34.7 °F 39.2 °F 93% 29.22 in 7.0 mi NW 10.4 mph 21.9 mph N/A   Light Drizzle
5:34 AM 41.0 °F 32.5 °F 41.0 °F 100% 29.20 in 7.0 mi NW 17.3 mph 21.9 mph N/A   Light Drizzle
5:54 AM 41.0 °F 33.5 °F 41.0 °F 100% 29.20 in 7.0 mi NW 13.8 mph 21.9 mph N/A   Overcast
6:34 AM 42.8 °F 36.2 °F 42.8 °F 100% 29.20 in 3.0 mi NW 12.7 mph 20.7 mph N/A   Overcast
6:54 AM 42.8 °F 36.6 °F 42.8 °F 100% 29.20 in 3.0 mi NNW 11.5 mph 18.4 mph N/A   Overcast
7:14 AM 42.8 °F 36.6 °F 42.8 °F 100% 29.20 in 3.0 mi NNW 11.5 mph 18.4 mph N/A   Drizzle
7:34 AM 42.8 °F 35.4 °F 42.8 °F 100% 29.19 in 4.0 mi NNW 15.0 mph 21.9 mph N/A   Drizzle
7:54 AM 42.8 °F 35.1 °F 42.8 °F 100% 29.19 in 3.0 mi NNW 16.1 mph 23.0 mph N/A   Light Drizzle
8:14 AM 42.8 °F 36.6 °F 42.8 °F 100% 29.19 in 5.0 mi NNW 11.5 mph - N/A   Overcast
8:34 AM 42.8 °F 35.4 °F 42.8 °F 100% 29.19 in 3.0 mi NNW 15.0 mph 23.0 mph N/A   Overcast
8:54 AM 42.8 °F 36.2 °F 42.8 °F 100% 29.19 in 2.0 mi NNW 12.7 mph 20.7 mph N/A   Overcast
9:14 AM 42.8 °F 36.2 °F 42.8 °F 100% 29.19 in 3.0 mi NNW 12.7 mph 21.9 mph N/A   Overcast
9:34 AM 42.8 °F 35.8 °F 42.8 °F 100% 29.20 in 3.0 mi North 13.8 mph 17.3 mph N/A   Overcast
9:54 AM 42.8 °F 36.6 °F 42.8 °F 100% 29.20 in 1.2 mi NNW 11.5 mph 17.3 mph N/A   Overcast
10:14 AM 42.8 °F 37.0 °F 42.8 °F 100% 29.20 in 1.0 mi North 10.4 mph 17.3 mph N/A   Overcast
10:34 AM 42.8 °F 36.6 °F 42.8 °F 100% 29.20 in 1.2 mi North 11.5 mph 16.1 mph N/A Rain Rain
10:54 AM 44.6 °F 39.2 °F 44.6 °F 100% 29.20 in 1.8 mi North 10.4 mph - N/A   Light Drizzle
11:14 AM 44.6 °F 38.8 °F 44.6 °F 100% 29.20 in 7.0 mi North 11.5 mph 17.3 mph N/A   Light Drizzle
11:34 AM 44.6 °F 38.4 °F 44.6 °F 100% 29.21 in 10.0 mi North 12.7 mph - N/A   Overcast
11:54 AM 44.6 °F 38.4 °F 44.6 °F 100% 29.23 in 10.0 mi North 12.7 mph 18.4 mph N/A Rain Light Rain
12:14 PM 44.6 °F 39.7 °F 44.6 °F 100% 29.23 in 10.0 mi North 9.2 mph - 0.01 in Rain Rain
12:34 PM 46.4 °F 41.1 °F 46.4 °F 100% 29.25 in 10.0 mi North 11.5 mph - 0.02 in Rain Light Rain
12:54 PM 46.4 °F 41.1 °F 46.4 °F 100% 29.26 in 10.0 mi North 11.5 mph - 0.03 in Rain Rain
1:14 PM 46.4 °F 40.7 °F 46.4 °F 100% 29.27 in 7.0 mi NNE 12.7 mph - 0.01 in   Drizzle
1:34 PM 46.4 °F 39.5 °F 46.4 °F 100% 29.28 in 5.0 mi NE 17.3 mph - 0.01 in   Drizzle
1:54 PM 46.4 °F 39.5 °F 46.4 °F 100% 29.29 in 5.0 mi NNE 17.3 mph 21.9 mph 0.01 in   Light Drizzle
2:14 PM 46.4 °F 39.5 °F 46.4 °F 100% 29.31 in 4.0 mi NNE 17.3 mph 24.2 mph N/A   Drizzle
2:34 PM 46.4 °F 39.5 °F 46.4 °F 100% 29.32 in 4.0 mi North 17.3 mph 26.5 mph 0.01 in   Drizzle
2:54 PM 46.4 °F 39.8 °F 46.4 °F 100% 29.33 in 4.0 mi North 16.1 mph 21.9 mph 0.02 in Rain Light Rain
3:14 PM 46.4 °F 40.4 °F 46.4 °F 100% 29.33 in 3.0 mi North 13.8 mph 23.0 mph N/A Rain Light Rain
3:34 PM 46.4 °F 39.8 °F 46.4 °F 100% 29.35 in 3.0 mi North 16.1 mph 23.0 mph 0.01 in   Drizzle
3:54 PM 46.4 °F 41.1 °F 46.4 °F 100% 29.35 in 5.0 mi North 11.5 mph 17.3 mph 0.02 in   Drizzle
4:14 PM 46.4 °F 42.4 °F 46.4 °F 100% 29.36 in 3.0 mi North 8.1 mph - 0.01 in   Drizzle
4:34 PM 46.4 °F 42.4 °F 46.4 °F 100% 29.35 in 3.0 mi NNW 8.1 mph - 0.05 in   Heavy Drizzle
4:54 PM 46.4 °F 38.5 °F 46.4 °F 100% 29.35 in 2.5 mi North 21.9 mph 28.8 mph 0.10 in   Heavy Drizzle
5:14 PM 46.4 °F 38.1 °F 46.4 °F 100% 29.36 in 3.0 mi North 24.2 mph 29.9 mph 0.01 in   Drizzle
5:34 PM 46.4 °F 38.3 °F 46.4 °F 100% 29.36 in 4.0 mi North 23.0 mph 31.1 mph 0.01 in   Drizzle
5:54 PM 46.4 °F 37.7 °F 46.4 °F 100% 29.36 in 3.0 mi North 26.5 mph 36.8 mph 0.01 in   Drizzle
6:14 PM 44.6 °F 36.9 °F 44.6 °F 100% 29.37 in 2.5 mi North 18.4 mph 29.9 mph 0.01 in   Drizzle
6:34 PM 44.6 °F 35.3 °F 44.6 °F 100% 29.37 in 5.0 mi North 26.5 mph 35.7 mph 0.01 in   Drizzle
6:54 PM 44.6 °F 34.6 °F 44.6 °F 100% 29.37 in 7.0 mi North 31.1 mph 43.7 mph 0.02 in   Drizzle
7:14 PM 44.6 °F 35.5 °F 44.6 °F 100% 29.38 in 10.0 mi North 25.3 mph 34.5 mph 0.01 in   Drizzle
7:34 PM 44.6 °F 35.7 °F 44.6 °F 100% 29.38 in 7.0 mi North 24.2 mph 34.5 mph 0.04 in   Heavy Drizzle
7:54 PM 44.6 °F 35.3 °F 44.6 °F 100% 29.39 in 10.0 mi North 26.5 mph 36.8 mph 0.06 in Rain Light Rain
8:14 PM 44.6 °F 35.1 °F 44.6 °F 100% 29.39 in 10.0 mi North 27.6 mph 39.1 mph 0.02 in Rain Light Rain
8:34 PM 42.8 °F 33.1 °F 42.8 °F 100% 29.40 in 10.0 mi North 25.3 mph 32.2 mph 0.03 in Rain Rain
8:54 PM 42.8 °F 33.5 °F 42.8 °F 100% 29.41 in 7.0 mi North 23.0 mph 32.2 mph 0.04 in Rain Rain
9:14 PM 42.8 °F 33.8 °F 42.8 °F 100% 29.41 in 7.0 mi North 21.9 mph 32.2 mph 0.02 in Rain Rain
9:34 PM 42.8 °F 33.1 °F 42.8 °F 100% 29.41 in 5.0 mi North 25.3 mph 32.2 mph 0.03 in   Drizzle
9:54 PM 42.8 °F 33.3 °F 42.8 °F 100% 29.42 in 4.0 mi North 24.2 mph 33.4 mph 0.03 in   Drizzle
10:14 PM 42.8 °F 32.9 °F 42.8 °F 100% 29.42 in 5.0 mi North 26.5 mph 38.0 mph 0.01 in   Drizzle
10:34 PM 42.8 °F 33.1 °F 42.8 °F 100% 29.43 in 4.0 mi North 25.3 mph 33.4 mph 0.01 in   Drizzle
10:54 PM 42.8 °F 32.7 °F 42.8 °F 100% 29.43 in 4.0 mi North 27.6 mph 34.5 mph 0.03 in   Drizzle
11:14 PM 42.8 °F 32.7 °F 42.8 °F 100% 29.44 in 5.0 mi North 27.6 mph 34.5 mph 0.01 in Rain Rain
11:34 PM 42.8 °F 33.5 °F 42.8 °F 100% 29.45 in 7.0 mi North 23.0 mph 35.7 mph 0.03 in Rain Light Rain
11:54 PM 42.8 °F 33.5 °F 42.8 °F 100% 29.45 in 3.0 mi North 23.0 mph 31.1 mph 0.04 in Rain Rain